Вернуться в каталог

COSMOS 1829

АктивенВоенныеPO
NORAD 17584·PAYLOAD·🇷🇺 Russia

Запущен Mar 13, 1987 с Plesetsk Cosmodrome

Loading…

Ближайшие Пролёты (ближайшие 24 часа)

TLE

СвежийSource: Space-Track

Эпоха: Sep 14, 2026, 05:11 UTC

1 17584U 87026C   26257.21661388  .00000030  00000-0  10715-3 0  9995
2 17584  82.5755 175.7418 0001962  67.5843 292.5456 12.62722105820644

Отслеживайте COSMOS 1829 в реальном времени с AllMySat

Download on the App Store